Location: Unspecified
(46.9559°N, 0.0000°E)
Time: 08:12:02
(UTC+00:00)

CSL-04 DEB - Visible Passes

Search period start: 04 April 2026 00:00
Search period end: 14 April 2026 00:00
Orbit: 582 x 773 km, 99.3° (Epoch: 29 March)

Date Brightness Start Highest point End Pass type
(mag) Time Alt. Az. Time Alt. Az. Time Alt. Az.
4 Apr ? 01:54:53 10° N 01:56:21 20° N 01:56:21 20° N visible
5 Apr ? 00:52:38 10° NNE 00:53:32 16° NNE 00:53:32 16° NNE visible
5 Apr ? 02:30:37 10° NNW 02:31:54 15° NNW 02:31:54 15° NNW visible
6 Apr ? 01:27:34 10° NNE 01:29:04 21° N 01:29:04 21° N visible
7 Apr ? 00:25:58 10° NE 00:26:14 11° NE 00:26:14 11° NE visible
7 Apr ? 02:02:52 10° N 02:04:36 21° NNW 02:04:36 21° NNW visible
8 Apr ? 01:00:28 10° NNE 01:01:45 19° NNE 01:01:45 19° NNE visible
8 Apr ? 02:38:42 10° NNW 02:40:07 15° NW 02:40:07 15° NW visible
9 Apr ? 01:35:25 10° N 01:37:16 25° N 01:37:16 25° N visible
10 Apr ? 00:33:37 10° NE 00:34:23 14° NE 00:34:23 14° NE visible
10 Apr ? 02:10:46 10° N 02:12:45 22° NNW 02:12:45 22° NNW visible
11 Apr ? 01:08:11 10° NNE 01:09:53 24° NNE 01:09:53 24° NNE visible
11 Apr ? 02:46:43 10° NNW 02:48:15 14° NW 02:48:15 14° NW visible
12 Apr ? 01:43:10 10° N 01:45:22 29° N 01:45:22 29° N visible
13 Apr ? 00:41:11 10° NE 00:42:28 18° NE 00:42:28 18° NE visible
13 Apr ? 02:18:33 10° N 02:20:50 22° NW 02:20:50 22° NW visible
